Terminal Aerodrome Forecast
Issued by NWS Louisville, KY

Home | Current Version | Previous Version | Text Only | Print | Product List | Glossary On
Versions: 1 2 3 4 5 6 7 8 9 10 11 12 13 14 15 16
000
FTUS43 KLMK 291137
TAFSDF
TAF
KSDF 291137Z 2912/3018 16006KT P6SM BKN250
     FM291400 19007KT P6SM SCT050 BKN250
     FM291800 21010KT P6SM SCT050 BKN250
     FM300000 17005KT P6SM SCT040 BKN250=

USA.gov is the U.S. government's official web portal to all federal, state and local government web resources and services.